EW8288 Weather Reports


Display with metric or nautical units.
time (UTC)temp
F
wind
direction
speed
MPH
gust
MPH
rain 1hr
in
rain 24hr
in
rain mn
in
humidity
%
barometer
mb
20260506143226 78 185 0.0 16.0 0.00 0.00 0.00 38 1002.7
20260506142225 78 185 0.0 16.0 0.00 0.00 0.00 38 1002.7
20260506141234 78 236 0.0 7.0 0.00 0.00 0.00 38 1003.0
20260506140225 78 240 2.0 9.0 0.00 0.00 0.00 37 1003.0
20260506135224 78 161 0.0 5.0 0.00 0.00 0.00 38 1003.0
20260506134226 78 167 3.0 7.0 0.00 0.00 0.00 40 1003.0
20260506133224 77 217 0.0 10.0 0.00 0.00 0.00 40 1003.4
20260506132227 78 208 0.0 6.0 0.00 0.00 0.00 39 1003.7
20260506131227 77 211 0.0 3.0 0.00 0.00 0.00 40 1004.1
20260506130225 78 197 0.0 7.0 0.00 0.00 0.00 38 1004.1
20260506125225 79 259 0.0 12.0 0.00 0.00 0.00 38 1004.1
20260506124224 79 238 0.0 10.0 0.00 0.00 0.00 40 1004.4
20260506123227 79 236 0.0 6.0 0.00 0.00 0.00 40 1004.4
20260506122224 77 201 0.0 7.0 0.00 0.00 0.00 41 1004.4
20260506121226 76 177 0.0 11.0 0.00 0.00 0.00 42 1004.7
20260506120225 76 192 0.0 9.0 0.00 0.00 0.00 42 1004.7
20260506115441 76 202 2.0 10.0 0.00 0.00 0.00 42 1005.1
20260506114224 76 221 1.0 12.0 0.00 0.00 0.00 42 1005.1
20260506113225 77 195 0.0 12.0 0.00 0.00 0.00 42 1005.1
20260506112225 77 218 0.0 9.0 0.00 0.00 0.00 43 1005.1
20260506111226 77 238 1.0 9.0 0.00 0.00 0.00 44 1005.4
20260506110227 76 222 0.0 11.0 0.00 0.00 0.00 45 1005.4
20260506105442 76 245 7.0 10.0 0.00 0.00 0.00 44 1005.8
20260506104227 75 196 0.0 9.0 0.00 0.00 0.00 46 1005.8
20260506103226 75 194 0.0 3.0 0.00 0.00 0.00 46 1005.8
20260506102226 74 194 0.0 15.0 0.00 0.00 0.00 46 1006.1
20260506101225 74 207 0.0 7.0 0.00 0.00 0.00 48 1006.1
20260506100440 74 243 0.0 7.0 0.00 0.00 0.00 46 1006.4
20260506095227 73 192 0.0 8.0 0.00 0.00 0.00 47 1006.4
20260506094226 73 192 0.0 8.0 0.00 0.00 0.00 47 1006.4
20260506093224 73 231 4.0 5.0 0.00 0.00 0.00 49 1006.4
20260506092225 72 221 0.0 5.0 0.00 0.00 0.00 46 1006.4
20260506091226 72 224 0.0 5.0 0.00 0.00 0.00 47 1006.4
20260506090228 72 230 0.0 8.0 0.00 0.00 0.00 46 1006.4
20260506085226 71 228 0.0 4.0 0.00 0.00 0.00 48 1006.8
20260506084225 70 227 0.0 1.0 0.00 0.00 0.00 49 1006.8
20260506083228 70 227 0.0 1.0 0.00 0.00 0.00 50 1006.8
20260506082224 68 227 0.0 0.0 0.00 0.00 0.00 53 1006.8
20260506081225 68 229 0.0 5.0 0.00 0.00 0.00 53 1006.8
20260506080440 68 228 0.0 7.0 0.00 0.00 0.00 56 1006.8
20260506073227 67 229 2.0 6.0 0.00 0.00 0.00 59 1007.1
20260506072224 66 216 0.0 6.0 0.00 0.00 0.00 61 1007.5
20260506071228 66 220 0.0 5.0 0.00 0.00 0.00 64 1007.5
20260506070226 65 220 0.0 6.0 0.00 0.00 0.00 67 1007.5
20260506062225 63 203 2.0 5.0 0.00 0.00 0.00 72 1007.5
20260506061441 62 201 2.0 5.0 0.00 0.00 0.00 73 1007.5
20260506060226 62 201 1.0 3.0 0.00 0.00 0.00 74 1007.5
20260506051225 58 200 0.0 4.0 0.00 0.00 0.00 82 1007.5
20260506050226 58 200 1.0 6.0 0.00 0.00 0.00 83 1007.1
20260506044224 57 199 0.0 4.0 0.00 0.00 0.00 84 1007.1
20260506043226 57 199 0.0 3.0 0.00 0.00 0.00 84 1007.1
20260506042441 57 199 0.0 3.0 0.00 0.00 0.00 83 1007.1
20260506041227 57 198 0.0 2.0 0.00 0.00 0.00 83 1006.8
20260506040226 57 198 0.0 1.0 0.00 0.00 0.00 82 1006.4
20260506035226 57 198 0.0 1.0 0.00 0.00 0.00 81 1006.8
20260506034226 57 198 0.0 1.0 0.00 0.00 0.00 81 1006.8
20260506033227 58 198 0.0 2.0 0.00 0.00 0.00 79 1006.8
20260506032226 58 198 0.0 0.0 0.00 0.00 0.00 78 1006.8
20260506031225 58 198 0.0 0.0 0.00 0.00 0.00 77 1006.8
20260506030226 59 198 0.0 2.0 0.00 0.00 0.00 76 1006.8
20260506025226 59 198 0.0 1.0 0.00 0.00 0.00 77 1006.8
20260506024227 59 198 0.0 3.0 0.00 0.00 0.00 76 1006.8
20260506023224 60 198 0.0 1.0 0.00 0.00 0.00 75 1006.8
20260506022224 60 198 0.0 1.0 0.00 0.00 0.00 73 1006.8
20260506021226 61 198 0.0 3.0 0.00 0.00 0.00 72 1006.8
20260506020226 61 198 0.0 0.0 0.00 0.00 0.00 71 1006.4
20260506015226 61 198 0.0 1.0 0.00 0.00 0.00 70 1006.4
20260506014442 62 198 0.0 3.0 0.00 0.00 0.00 69 1006.4
20260506013442 62 198 0.0 3.0 0.00 0.00 0.00 68 1006.4
20260506012226 62 198 0.0 3.0 0.00 0.00 0.00 66 1006.4
20260506011224 63 198 0.0 3.0 0.00 0.00 0.00 65 1006.4
20260506010224 62 197 1.0 4.0 0.00 0.00 0.00 65 1006.4
20260506005224 62 196 0.0 2.0 0.00 0.00 0.00 65 1006.1
20260506004224 62 196 0.0 0.0 0.00 0.00 0.00 66 1006.1
20260506003226 62 196 0.0 2.0 0.00 0.00 0.00 66 1005.8
20260506002226 62 196 0.0 2.0 0.00 0.00 0.00 66 1005.4
20260506001225 62 196 0.0 0.0 0.00 0.00 0.00 64 1005.4
20260506000441 63 196 0.0 1.0 0.00 0.00 0.00 63 1005.4
20260505235225 62 196 0.0 0.0 0.00 0.00 0.00 63 1005.4
20260505234225 62 196 0.0 0.0 0.00 0.00 0.00 62 1005.1
20260505233224 63 196 0.0 2.0 0.00 0.00 0.00 61 1005.1
20260505232224 62 196 0.0 0.0 0.00 0.00 0.00 61 1005.1
20260505231224 62 196 0.0 2.0 0.00 0.00 0.00 61 1004.7
20260505230227 62 196 0.0 1.0 0.00 0.00 0.00 61 1004.7
20260505225224 62 196 0.0 0.0 0.00 0.00 0.00 60 1004.4
20260505224225 62 196 0.0 0.0 0.00 0.00 0.00 60 1004.4
20260505223228 62 196 0.0 1.0 0.00 0.00 0.00 60 1004.4
20260505222224 62 196 0.0 3.0 0.00 0.00 0.00 59 1004.1
20260505221439 63 196 0.0 3.0 0.00 0.00 0.00 59 1004.1
20260505220225 63 196 0.0 3.0 0.00 0.00 0.00 59 1004.1
20260505215224 62 198 0.0 0.0 0.00 0.00 0.00 60 1003.7
20260505214225 62 198 0.0 2.0 0.00 0.00 0.00 59 1003.7
20260505213440 63 198 0.0 2.0 0.00 0.00 0.00 58 1003.7
20260505212227 63 198 0.0 5.0 0.00 0.00 0.00 58 1003.7
20260505211226 63 207 2.0 5.0 0.00 0.00 0.00 58 1003.4
20260505210224 63 190 0.0 6.0 0.00 0.00 0.00 57 1003.0
20260505205227 64 223 0.0 11.0 0.00 0.00 0.00 56 1003.0
20260505204227 64 167 4.0 9.0 0.00 0.00 0.00 56 1003.0
20260505203226 64 198 3.0 6.0 0.00 0.00 0.00 55 1003.0
20260505202228 64 175 2.0 7.0 0.00 0.00 0.00 55 1002.7
20260505201226 65 199 0.0 10.0 0.00 0.00 0.00 54 1002.7
20260505200227 65 188 5.0 7.0 0.00 0.00 0.00 53 1002.7
20260505195441 66 185 3.0 4.0 0.00 0.00 0.00 52 1002.4
20260505194226 66 234 0.0 9.0 0.00 0.00 0.00 51 1002.7
20260505193226 66 236 2.0 7.0 0.00 0.00 0.00 50 1002.4
20260505192229 67 165 1.0 7.0 0.00 0.00 0.00 49 1002.4
20260505191442 67 209 0.0 7.0 0.00 0.00 0.00 49 1002.7
20260505190225 68 217 0.0 8.0 0.00 0.00 0.00 48 1002.4
20260505185226 68 220 0.0 7.0 0.00 0.00 0.00 47 1002.4
20260505184225 69 243 0.0 8.0 0.00 0.00 0.00 47 1002.4
20260505183226 69 194 4.0 7.0 0.00 0.00 0.00 47 1002.4
20260505182227 70 184 0.0 8.0 0.00 0.00 0.00 46 1002.4
20260505181225 70 178 2.0 7.0 0.00 0.00 0.00 45 1002.4
20260505180225 71 214 0.0 5.0 0.00 0.00 0.00 45 1002.4
20260505175225 72 194 0.0 11.0 0.00 0.00 0.00 44 1002.4
20260505174227 72 202 0.0 8.0 0.00 0.00 0.00 43 1002.4
20260505173226 73 193 1.0 10.0 0.00 0.00 0.00 43 1002.4
20260505172225 73 209 0.0 6.0 0.00 0.00 0.00 43 1002.4
20260505171225 74 214 0.0 6.0 0.00 0.00 0.00 42 1002.4
20260505170225 74 197 0.0 7.0 0.00 0.00 0.00 41 1002.4
20260505165440 75 183 0.0 6.0 0.00 0.00 0.00 39 1002.4
20260505164224 75 183 0.0 6.0 0.00 0.00 0.00 39 1002.4
20260505163225 76 214 2.0 9.0 0.00 0.00 0.00 38 1002.4
20260505162225 78 195 0.0 6.0 0.00 0.00 0.00 36 1002.4
20260505161224 78 191 5.0 6.0 0.00 0.00 0.00 35 1002.7
20260505160225 78 197 0.0 11.0 0.00 0.00 0.00 34 1002.7
20260505153228 80 212 3.0 10.0 0.00 0.00 0.00 33 1002.7
20260505152226 81 192 0.0 11.0 0.00 0.00 0.00 31 1002.7
20260505151227 81 196 0.0 11.0 0.00 0.00 0.00 30 1002.7
20260505150224 82 200 0.0 6.0 0.00 0.00 0.00 29 1002.7